Location: Champs
(48.8539°N, 2.6040°E)
Time: 22:18:53
(UTC+00:00)

Cosmos 1953 - Pass Details

Date: 03 June 2022
Orbit: 533 x 555 km, 82.5° (Epoch: 01 July)

Event Time Altitude Azimuth Distance (km) Brightness Sun altitude
Rises 00:32:22 0° 335° (NNW) 2,717 6.8 -18.2°
Reaches altitude 10° 00:35:08 10° 315° (NW) 1,813 5.4 -18.1°
Maximum altitude 00:37:42 17° 274° (W) 1,421 4.3 -18.0°
Enters shadow 00:38:36 16° 258° (WSW) 1,471 4.2 -18.0°
